When you browse on this site, cookies collect data to enhance your experience and personalize the content and advertising you see.
Visit our Privacy Policy to learn more. By continuing to use the site, you agree to this use of cookies and data.
  • în România
  • Lista ţărilor
  • Pe 7 zile
  • Temperatura apei
  • Meteo pe hartă
  • Widget-uri
  • user-avatar
    Intrare

    Meteo pe oră la Hanoi

    Astăzi, 15 Decembrie, Duminică

    Timp Temperatura Precipitaţii Vânt Presiune Umiditate
    00:00 +21°C° 0 mm 1 m/s 762 mmHg 93%
    01:00 +21°C° 0 mm 1 m/s 762 mmHg 92%
    02:00 +21°C° 0 mm 1 m/s 762 mmHg 92%
    03:00 +21°C° 0 mm 1 m/s 761 mmHg 91%
    04:00 +21°C° 0 mm 1 m/s 761 mmHg 90%
    05:00 +22°C° 0 mm 1 m/s 761 mmHg 90%
    06:00 +22°C° 0 mm 1 m/s 762 mmHg 89%
    07:00 +20°C° 0 mm 0 m/s 762 mmHg 89%
    08:00 +22°C° 0 mm 1 m/s 763 mmHg 86%
    09:00 +23°C° 0 mm 1 m/s 763 mmHg 83%
    10:00 +24°C° 0 mm 1 m/s 763 mmHg 80%
    11:00 +25°C° 0 mm 1 m/s 762 mmHg 76%
    12:00 +26°C° 0 mm 1 m/s 761 mmHg 71%
    13:00 +27°C° 0 mm 2 m/s 761 mmHg 69%
    14:00 +27°C° 0 mm 3 m/s 761 mmHg 69%
    15:00 +27°C° 0 mm 3 m/s 760 mmHg 69%
    16:00 +27°C° 0 mm 4 m/s 760 mmHg 69%
    17:00 +26°C° 0 mm 4 m/s 760 mmHg 75%
    18:00 +25°C° 0 mm 4 m/s 761 mmHg 80%
    19:00 +23°C° 0 mm 4 m/s 761 mmHg 85%
    20:00 +24°C° 0 mm 3 m/s 761 mmHg 88%
    21:00 +22°C° 0 mm 3 m/s 761 mmHg 90%
    22:00 +23°C° 0 mm 2 m/s 762 mmHg 92%
    23:00 +23°C° 0 mm 2 m/s 761 mmHg 93%

    Mâine, 16 Decembrie, Luni

    Timp Temperatura Precipitaţii Vânt Presiune Umiditate
    00:00 +21°C° 0 mm 2 m/s 761 mmHg 94%
    01:00 +21°C° 0 mm 2 m/s 761 mmHg 94%
    02:00 +21°C° 0 mm 2 m/s 761 mmHg 95%
    03:00 +22°C° 0 mm 1 m/s 760 mmHg 95%
    04:00 +21°C° 0 mm 1 m/s 760 mmHg 95%
    05:00 +21°C° 0 mm 1 m/s 761 mmHg 96%
    06:00 +21°C° 0 mm 1 m/s 761 mmHg 96%
    07:00 +21°C° 0 mm 1 m/s 761 mmHg 96%
    08:00 +23°C° 0 mm 1 m/s 761 mmHg 87%
    09:00 +25°C° 0 mm 2 m/s 762 mmHg 78%
    10:00 +26°C° 0 mm 2 m/s 762 mmHg 69%
    11:00 +27°C° 0 mm 2 m/s 761 mmHg 64%
    12:00 +28°C° 0 mm 2 m/s 760 mmHg 60%
    13:00 +29°C° 0 mm 3 m/s 759 mmHg 56%
    14:00 +29°C° 0 mm 3 m/s 759 mmHg 56%
    15:00 +29°C° 0 mm 3 m/s 759 mmHg 55%
    16:00 +29°C° 0 mm 3 m/s 758 mmHg 55%
    17:00 +28°C° 0 mm 3 m/s 759 mmHg 61%
    18:00 +27°C° 0 mm 3 m/s 759 mmHg 67%
    19:00 +26°C° 0 mm 3 m/s 760 mmHg 73%
    20:00 +25°C° 0 mm 3 m/s 760 mmHg 77%
    21:00 +24°C° 0 mm 3 m/s 761 mmHg 81%
    22:00 +24°C° 0 mm 2 m/s 761 mmHg 85%
    23:00 +23°C° 0 mm 2 m/s 761 mmHg 87%

    Poimâine, 17 Decembrie, Marţi

    Timp Temperatura Precipitaţii Vânt Presiune Umiditate
    00:00 +23°C° 0 mm 2 m/s 761 mmHg 89%
    01:00 +23°C° 0 mm 1 m/s 760 mmHg 91%
    02:00 +23°C° 0 mm 1 m/s 760 mmHg 91%
    03:00 +23°C° 0 mm 1 m/s 760 mmHg 90%
    04:00 +23°C° 0 mm 1 m/s 760 mmHg 90%
    05:00 +23°C° 0 mm 1 m/s 760 mmHg 89%
    06:00 +23°C° 0 mm 1 m/s 760 mmHg 89%
    07:00 +21°C° 0 mm 0 m/s 761 mmHg 88%
    08:00 +24°C° 0 mm 1 m/s 761 mmHg 83%
    09:00 +25°C° 0 mm 1 m/s 761 mmHg 78%
    10:00 +26°C° 0 mm 1 m/s 761 mmHg 72%
    11:00 +28°C° 0 mm 1 m/s 761 mmHg 67%
    12:00 +29°C° 0 mm 2 m/s 760 mmHg 62%
    13:00 +30°C° 0 mm 2 m/s 759 mmHg 56%
    14:00 +30°C° 0 mm 3 m/s 759 mmHg 58%
    15:00 +29°C° 0 mm 3 m/s 759 mmHg 60%
    16:00 +29°C° 0 mm 3 m/s 758 mmHg 62%
    17:00 +28°C° 0 mm 3 m/s 759 mmHg 68%
    18:00 +27°C° 0 mm 3 m/s 759 mmHg 74%
    19:00 +26°C° 0 mm 3 m/s 760 mmHg 79%
    20:00 +26°C° 0 mm 3 m/s 760 mmHg 82%
    21:00 +25°C° 0 mm 3 m/s 761 mmHg 84%
    22:00 +25°C° 0 mm 2 m/s 761 mmHg 87%
    23:00 +25°C° 0 mm 2 m/s 761 mmHg 87%

    18 Decembrie, Miercuri

    Timp Temperatura Precipitaţii Vânt Presiune Umiditate
    00:00 +24°C° 0 mm 2 m/s 760 mmHg 87%
    01:00 +24°C° 0 mm 2 m/s 760 mmHg 88%
    02:00 +24°C° 0.1 mm 2 m/s 760 mmHg 88%
    03:00 +24°C° 0.1 mm 2 m/s 760 mmHg 88%
    04:00 +24°C° 0.1 mm 1 m/s 760 mmHg 88%
    05:00 +24°C° 0.1 mm 1 m/s 760 mmHg 86%
    06:00 +24°C° 0.1 mm 1 m/s 760 mmHg 85%
    07:00 +25°C° 0.1 mm 1 m/s 761 mmHg 84%
    08:00 +26°C° 0 mm 1 m/s 761 mmHg 78%
    09:00 +27°C° 0 mm 1 m/s 761 mmHg 72%
    10:00 +28°C° 0 mm 2 m/s 761 mmHg 66%
    11:00 +28°C° 0.1 mm 2 m/s 761 mmHg 65%
    12:00 +29°C° 0.1 mm 2 m/s 760 mmHg 64%
    13:00 +29°C° 0.1 mm 3 m/s 760 mmHg 62%
    14:00 +29°C° 0 mm 3 m/s 759 mmHg 64%
    15:00 +28°C° 0 mm 3 m/s 759 mmHg 66%
    16:00 +28°C° 0 mm 3 m/s 759 mmHg 68%
    17:00 +27°C° 0 mm 4 m/s 759 mmHg 71%
    18:00 +26°C° 0 mm 4 m/s 760 mmHg 74%
    19:00 +26°C° 0 mm 5 m/s 760 mmHg 77%
    20:00 +26°C° 0 mm 4 m/s 760 mmHg 77%
    21:00 +26°C° 0 mm 4 m/s 761 mmHg 77%
    22:00 +26°C° 0 mm 3 m/s 761 mmHg 78%
    23:00 +25°C° 0.1 mm 3 m/s 761 mmHg 78%

    19 Decembrie, Joi

    Timp Temperatura Precipitaţii Vânt Presiune Umiditate
    00:00 +25°C° 0.1 mm 3 m/s 761 mmHg 79%
    01:00 +25°C° 0.1 mm 2 m/s 760 mmHg 80%
    02:00 +25°C° 0.1 mm 3 m/s 760 mmHg 80%
    03:00 +25°C° 0.1 mm 3 m/s 760 mmHg 80%
    04:00 +25°C° 0.1 mm 3 m/s 760 mmHg 80%
    05:00 +25°C° 0.1 mm 2 m/s 760 mmHg 80%
    06:00 +25°C° 0.1 mm 2 m/s 760 mmHg 80%
    07:00 +25°C° 0.1 mm 2 m/s 761 mmHg 80%
    08:00 +25°C° 0.1 mm 2 m/s 761 mmHg 76%
    09:00 +26°C° 0.1 mm 3 m/s 761 mmHg 72%
    10:00 +27°C° 0.1 mm 3 m/s 762 mmHg 68%
    11:00 +27°C° 0.1 mm 4 m/s 761 mmHg 66%
    12:00 +28°C° 0.1 mm 4 m/s 760 mmHg 64%
    13:00 +28°C° 0.1 mm 4 m/s 760 mmHg 61%
    14:00 +28°C° 0 mm 5 m/s 759 mmHg 62%
    15:00 +28°C° 0 mm 5 m/s 759 mmHg 62%
    16:00 +28°C° 0 mm 5 m/s 759 mmHg 63%
    17:00 +27°C° 0 mm 4 m/s 759 mmHg 68%
    18:00 +26°C° 0 mm 4 m/s 760 mmHg 72%
    19:00 +25°C° 0 mm 3 m/s 760 mmHg 77%
    20:00 +24°C° 0.1 mm 3 m/s 760 mmHg 79%
    21:00 +24°C° 0.1 mm 3 m/s 761 mmHg 82%
    22:00 +24°C° 0.1 mm 3 m/s 761 mmHg 84%
    23:00 +23°C° 0.4 mm 2 m/s 761 mmHg 86%

    20 Decembrie, Vineri

    Timp Temperatura Precipitaţii Vânt Presiune Umiditate
    00:00 +23°C° 0.4 mm 2 m/s 760 mmHg 89%
    01:00 +23°C° 0.4 mm 2 m/s 760 mmHg 91%
    02:00 +21°C° 0.3 mm 2 m/s 760 mmHg 91%
    03:00 +21°C° 0.3 mm 2 m/s 760 mmHg 92%
    04:00 +21°C° 0.3 mm 2 m/s 759 mmHg 92%
    05:00 +22°C° 0.1 mm 3 m/s 760 mmHg 91%
    06:00 +22°C° 0.1 mm 3 m/s 760 mmHg 89%
    07:00 +22°C° 0.1 mm 3 m/s 760 mmHg 88%
    08:00 +24°C° 0 mm 3 m/s 760 mmHg 83%
    09:00 +25°C° 0 mm 4 m/s 761 mmHg 78%
    10:00 +26°C° 0 mm 4 m/s 761 mmHg 72%
    11:00 +27°C° 0.2 mm 4 m/s 760 mmHg 69%
    12:00 +28°C° 0.2 mm 4 m/s 759 mmHg 66%
    13:00 +28°C° 0.2 mm 4 m/s 758 mmHg 63%
    14:00 +28°C° 0.2 mm 5 m/s 758 mmHg 64%
    15:00 +28°C° 0.2 mm 5 m/s 758 mmHg 65%
    16:00 +28°C° 0.2 mm 6 m/s 757 mmHg 66%
    17:00 +27°C° 0 mm 6 m/s 758 mmHg 71%
    18:00 +26°C° 0 mm 5 m/s 758 mmHg 75%
    19:00 +25°C° 0 mm 5 m/s 758 mmHg 80%
    20:00 +25°C° 0 mm 4 m/s 759 mmHg 82%
    21:00 +23°C° 0 mm 4 m/s 759 mmHg 84%
    22:00 +23°C° 0 mm 4 m/s 759 mmHg 85%
    23:00 +23°C° 0 mm 4 m/s 759 mmHg 86%
    Arată mai mult